Weather History for Dumas, TX

Change the Weather History Date:

Monday, January 21, 2013

  Actual Average (KBGD) Record (KBGD)
Temperature  
Mean Temperature 30 °F 39 °F  
Max Temperature 42 °F 52 °F 79 °F (1950)
Min Temperature 17 °F 26 °F 4 °F (1984)
Degree Days  
Heating Degree Days 36 26  
Month to date heating degree days 564  
Since 1 July heating degree days 2101  
Cooling Degree Days 0 0  
Month to date cooling degree days 0  
Year to date cooling degree days 0  
Moisture  
Dew Point 21 °F    
Average Humidity 76    
Maximum Humidity 100    
Minimum Humidity 49    
Precipitation  
Precipitation 0.00 in 0.02 in 0.62 in (1983)
Month to date precipitation 0.35  
Year to date precipitation 0.35  
Snow  
Snow 0.00 in - 6.10 in (1966)
Month to date snowfall  
Since 1 July snowfall  
Snow Depth -    
Sea Level Pressure  
Sea Level Pressure 30.24 in    
Wind  
Wind Speed 8 mph (WSW)    
Max Wind Speed 14 mph    
Max Gust Speed 17 mph    
Visibility 10 miles    
Events      
T = Trace of Precipitation, MM = Missing Value Source: NWS Daily Summary

Daily Weather History Graph

Daily Weather History Graph

Search for Another Location

Airport:

Trip Planner

Search our weather history database for the weather conditions in past years. The results will help you decide how hot, cold, wet, or windy it might be!

Date:

Astronomy

Jan. 21, 2013 Rise Set
Actual Time 7:55 AM CST 6:04 PM CST
Civil Twilight 7:27 AM CST 6:31 PM CST
Nautical Twilight 6:56 AM CST 7:02 PM CST
Astronomical Twilight 6:26 AM CST 7:33 PM CST
Moon 1:46 PM CST (1/21) 3:24 AM CST (1/21)
Length of Visible Light 11h 03m
Length of Day
10h 08m
Waxing Gibbous, 75% of the Moon is Illuminated
Jan 21
Waxing Gibbous
Jan 26
Full
Feb 3
Last Quarter
Feb 10
New
Feb 17
First Quarter

Hourly Weather History & Observations

Time (CST) Temp. Windchill Dew Point Humidity Pressure Visibility Wind Dir Wind Speed Gust Speed Precip Events Conditions
12:15 AM 26.6 °F 18.2 °F 23.0 °F 86% 30.29 in 10.0 mi NNE 8.1 mph - N/A   Clear
12:35 AM 26.6 °F 17.5 °F 21.2 °F 80% 30.30 in 10.0 mi North 9.2 mph - N/A   Clear
12:55 AM 23.0 °F 12.4 °F 21.2 °F 93% 30.29 in 10.0 mi North 10.4 mph - N/A   Clear
1:15 AM 23.0 °F 12.4 °F 21.2 °F 93% 30.30 in 10.0 mi North 10.4 mph - N/A   Clear
1:35 AM 23.0 °F 12.4 °F 21.2 °F 93% 30.30 in 10.0 mi North 10.4 mph - N/A   Clear
1:55 AM 23.0 °F 12.4 °F 21.2 °F 93% 30.30 in 10.0 mi NNE 10.4 mph - N/A   Clear
2:15 AM 21.2 °F 11.7 °F 19.4 °F 93% 30.30 in 10.0 mi North 8.1 mph - N/A   Clear
2:35 AM 21.2 °F 11.7 °F 19.4 °F 93% 30.30 in 10.0 mi North 8.1 mph - N/A   Clear
2:55 AM 21.2 °F 12.6 °F 19.4 °F 93% 30.30 in 10.0 mi North 6.9 mph - N/A   Clear
3:15 AM 21.2 °F 12.6 °F 19.4 °F 93% 30.29 in 10.0 mi NNE 6.9 mph - N/A   Clear
3:35 AM 19.4 °F 10.4 °F 17.6 °F 93% 30.30 in 10.0 mi North 6.9 mph - N/A   Clear
3:55 AM 19.4 °F 9.5 °F 17.6 °F 93% 30.29 in 10.0 mi North 8.1 mph - N/A   Clear
4:15 AM 19.4 °F 10.4 °F 17.6 °F 93% 30.29 in 10.0 mi North 6.9 mph - N/A   Clear
4:35 AM 17.6 °F 6.4 °F 17.6 °F 100% 30.29 in 10.0 mi North 9.2 mph - N/A   Clear
4:55 AM 17.6 °F - 15.8 °F 93% 30.28 in 10.0 mi Calm Calm - N/A   Clear
5:15 AM 17.6 °F 10.7 °F 15.8 °F 93% 30.29 in 10.0 mi North 4.6 mph - N/A   Clear
5:55 AM 17.6 °F 12.3 °F 15.8 °F 93% 30.29 in 10.0 mi NW 3.5 mph - N/A   Clear
6:15 AM 17.6 °F 10.7 °F 15.8 °F 93% 30.29 in 10.0 mi NW 4.6 mph - N/A   Clear
6:35 AM 17.6 °F 9.3 °F 14.0 °F 86% 30.30 in 10.0 mi NW 5.8 mph - N/A   Clear
6:55 AM 17.6 °F 9.3 °F 14.0 °F 86% 30.30 in 10.0 mi NNW 5.8 mph - N/A   Clear
7:15 AM 17.6 °F 9.3 °F 14.0 °F 86% 30.31 in 10.0 mi NW 5.8 mph - N/A   Clear
7:35 AM 17.6 °F 9.3 °F 14.0 °F 86% 30.31 in 10.0 mi NNW 5.8 mph - N/A   Clear
7:55 AM 17.6 °F 10.7 °F 14.0 °F 86% 30.31 in 10.0 mi NNW 4.6 mph - N/A   Clear
8:15 AM 17.6 °F 10.7 °F 14.0 °F 86% 30.32 in 10.0 mi NNW 4.6 mph - N/A   Clear
8:35 AM 17.6 °F 10.7 °F 15.8 °F 93% 30.32 in 7.0 mi NNW 4.6 mph - N/A   Clear
8:55 AM 19.4 °F 14.3 °F 19.4 °F 100% 30.32 in 7.0 mi NNW 3.5 mph - N/A   Clear
9:15 AM 21.2 °F 16.4 °F 19.4 °F 93% 30.33 in 7.0 mi North 3.5 mph - N/A   Clear
9:35 AM 23.0 °F 18.4 °F 21.2 °F 93% 30.33 in 10.0 mi North 3.5 mph - N/A   Clear
9:55 AM 23.0 °F - 21.2 °F 93% 30.33 in 10.0 mi Calm Calm - N/A   Clear
10:15 AM 26.6 °F - 21.2 °F 80% 30.33 in 10.0 mi Calm Calm - N/A   Clear
10:35 AM 26.6 °F - 21.2 °F 80% 30.34 in 10.0 mi Calm Calm - N/A   Clear
10:55 AM 28.4 °F 24.6 °F 21.2 °F 74% 30.34 in 10.0 mi WSW 3.5 mph - N/A   Clear
11:15 AM 30.2 °F 25.4 °F 23.0 °F 75% 30.33 in 10.0 mi SW 4.6 mph - N/A   Clear
11:35 AM 30.2 °F 24.3 °F 23.0 °F 75% 30.33 in 10.0 mi SSW 5.8 mph - N/A   Clear
11:55 AM 32.0 °F 28.7 °F 23.0 °F 69% 30.32 in 10.0 mi South 3.5 mph - N/A   Clear
12:15 PM 32.0 °F 27.5 °F 23.0 °F 69% 30.30 in 10.0 mi SSW 4.6 mph - N/A   Clear
12:35 PM 33.8 °F 27.7 °F 23.0 °F 65% 30.27 in 10.0 mi SSW 6.9 mph - N/A   Clear
12:55 PM 35.6 °F 26.6 °F 24.8 °F 65% 30.24 in 10.0 mi SSW 13.8 mph - N/A   Clear
1:15 PM 37.4 °F 29.3 °F 23.0 °F 56% 30.24 in 10.0 mi SSW 12.7 mph - N/A   Clear
1:35 PM 37.4 °F 29.3 °F 23.0 °F 56% 30.22 in 10.0 mi SSW 12.7 mph 17.3 mph N/A   Clear
1:55 PM 41.0 °F 34.7 °F 24.8 °F 53% 30.22 in 10.0 mi SSW 10.4 mph - N/A   Clear
2:15 PM 41.0 °F 33.9 °F 24.8 °F 53% 30.20 in 10.0 mi SSW 12.7 mph 16.1 mph N/A   Clear
2:55 PM 41.0 °F 33.5 °F 24.8 °F 53% 30.19 in 10.0 mi SSW 13.8 mph - N/A   Clear
3:15 PM 41.0 °F 33.9 °F 24.8 °F 53% 30.18 in 10.0 mi South 12.7 mph - N/A   Clear
3:35 PM 41.0 °F 33.5 °F 24.8 °F 53% 30.17 in 10.0 mi SW 13.8 mph - N/A   Clear
3:55 PM 42.8 °F 36.6 °F 24.8 °F 49% 30.17 in 10.0 mi SSW 11.5 mph 17.3 mph N/A   Clear
4:15 PM 42.8 °F 37.0 °F 24.8 °F 49% 30.17 in 10.0 mi SSW 10.4 mph - N/A   Clear
4:35 PM 42.8 °F 37.0 °F 24.8 °F 49% 30.16 in 10.0 mi SW 10.4 mph - N/A   Clear
4:55 PM 42.8 °F 37.5 °F 24.8 °F 49% 30.16 in 10.0 mi SSW 9.2 mph - N/A   Clear
5:15 PM 42.8 °F 37.5 °F 24.8 °F 49% 30.16 in 10.0 mi SSW 9.2 mph - N/A   Clear
5:35 PM 42.8 °F 39.3 °F 24.8 °F 49% 30.15 in 10.0 mi SSW 5.8 mph - N/A   Clear
5:55 PM 37.4 °F 32.8 °F 23.0 °F 56% 30.15 in 10.0 mi South 5.8 mph - N/A   Clear
6:15 PM 35.6 °F 29.9 °F 23.0 °F 60% 30.15 in 10.0 mi South 6.9 mph - N/A   Clear
6:35 PM 33.8 °F 27.0 °F 23.0 °F 65% 30.15 in 10.0 mi South 8.1 mph - N/A   Clear
6:55 PM 32.0 °F 25.6 °F 21.2 °F 64% 30.15 in 10.0 mi South 6.9 mph - N/A   Clear
7:15 PM 32.0 °F 24.8 °F 21.2 °F 64% 30.16 in 10.0 mi SSW 8.1 mph - N/A   Clear
7:35 PM 30.2 °F 23.4 °F 19.4 °F 64% 30.15 in 10.0 mi South 6.9 mph - N/A   Clear
7:55 PM 30.2 °F 23.4 °F 21.2 °F 69% 30.16 in 10.0 mi South 6.9 mph - N/A   Clear
8:15 PM 32.0 °F 25.6 °F 23.0 °F 69% 30.16 in 10.0 mi South 6.9 mph - N/A   Clear
8:35 PM 28.4 °F 20.4 °F 21.2 °F 74% 30.16 in 10.0 mi South 8.1 mph - N/A   Clear
8:55 PM 30.2 °F 23.4 °F 21.2 °F 69% 30.16 in 10.0 mi South 6.9 mph - N/A   Clear
9:15 PM 28.4 °F 18.5 °F 19.4 °F 69% 30.16 in 10.0 mi SSW 11.5 mph - N/A   Clear
9:35 PM 30.2 °F 22.6 °F 21.2 °F 69% 30.15 in 10.0 mi SSW 8.1 mph - N/A   Clear
9:55 PM 28.4 °F 19.1 °F 21.2 °F 74% 30.16 in 10.0 mi SSW 10.4 mph - N/A   Clear
10:15 PM 28.4 °F 19.1 °F 21.2 °F 74% 30.15 in 10.0 mi SSW 10.4 mph - N/A   Clear
10:35 PM 30.2 °F 21.3 °F 23.0 °F 75% 30.15 in 10.0 mi SSW 10.4 mph - N/A   Clear
10:55 PM 30.2 °F 21.9 °F 23.0 °F 75% 30.16 in 10.0 mi SSW 9.2 mph - N/A   Clear
11:15 PM 28.4 °F 19.7 °F 21.2 °F 74% 30.15 in 10.0 mi SSW 9.2 mph - N/A   Clear
11:35 PM 26.6 °F 17.5 °F 21.2 °F 80% 30.15 in 10.0 mi SSW 9.2 mph - N/A   Clear
11:55 PM 30.2 °F 21.9 °F 23.0 °F 75% 30.15 in 10.0 mi SSW 9.2 mph - N/A   Clear